South Haven, MI

7:45 PM EDT on September 25, 2017 (GMT -0400)
South Haven

Weather History for KLWA - December, 2012

Change the Weather History Date:

Wednesday, December 5, 2012

  Actual Average (KBEH) Record (KBEH)
Temperature  
Mean Temperature 32 °F -  
Max Temperature 38 °F 39 °F 70 °F (2001)
Min Temperature 27 °F 27 °F 5 °F (1991)
Degree Days  
Heating Degree Days 33    
Moisture  
Dew Point 22 °F    
Average Humidity 62    
Maximum Humidity 79    
Minimum Humidity 47    
Precipitation  
Precipitation 0.00 in - - ()
Sea Level Pressure  
Sea Level Pressure 30.34 in    
Wind  
Wind Speed 7 mph (NE)    
Max Wind Speed 14 mph    
Max Gust Speed 20 mph    
Visibility 10 miles    
Events      
Averages and records for this station are not official NWS values.
T = Trace of Precipitation, MM = Missing Value Source: NWS Daily Summary

Daily Weather History Graph

Daily Weather History Graph

Search for Another Location

Airport or City:

Trip Planner

Search our weather history database for the weather conditions in past years. The results will help you decide how hot, cold, wet, or windy it might be!

Date:

Astronomy

Dec. 05, 2012 Rise Set
Actual Time 7:59 AM EST 5:12 PM EST
Civil Twilight 7:27 AM EST 5:44 PM EST
Nautical Twilight 6:52 AM EST 6:19 PM EST
Astronomical Twilight 6:18 AM EST 6:53 PM EST
Moon No Moon Rise 12:17 PM EST (12/5)
Length of Visible Light 10h 16m
Length of Day
9h 13m
Waning Gibbous, 60% of the Moon is Illuminated
Dec 5
Waning Gibbous
Dec 6
Last Quarter
Dec 13
New
Dec 20
First Quarter
Dec 28
Full

Hourly Weather History & Observations

Time (EST) Temp. Windchill Dew Point Humidity Pressure Visibility Wind Dir Wind Speed Gust Speed Precip Events Conditions
12:15 AM 37.9 °F 30.0 °F 28.2 °F 68% 30.22 in 10.0 mi NNW 12.7 mph 18.4 mph N/A   Clear
12:34 AM 37.4 °F 28.9 °F 27.5 °F 67% 30.24 in 10.0 mi NW 13.8 mph 19.6 mph N/A   Clear
12:55 AM 37.2 °F 31.2 °F 27.0 °F 66% 30.24 in 10.0 mi NNW 8.1 mph 17.3 mph N/A   Scattered Clouds
1:15 AM 36.7 °F 29.4 °F 25.7 °F 64% 30.25 in 10.0 mi NNW 10.4 mph - N/A   Clear
1:34 AM 36.3 °F 29.5 °F 25.5 °F 65% 30.25 in 10.0 mi NNW 9.2 mph - N/A   Clear
1:55 AM 36.0 °F 29.0 °F 25.2 °F 65% 30.26 in 10.0 mi NNW 9.2 mph - N/A   Scattered Clouds
2:15 AM 36.1 °F 29.3 °F 25.2 °F 64% 30.27 in 10.0 mi NNW 9.2 mph - N/A   Mostly Cloudy
2:55 AM 36.0 °F 29.0 °F 23.5 °F 61% 30.30 in 10.0 mi NNW 9.2 mph 18.4 mph N/A   Mostly Cloudy
3:14 AM 36.0 °F 29.0 °F 24.3 °F 63% 30.31 in 10.0 mi NNW 9.2 mph 16.1 mph N/A   Mostly Cloudy
3:35 AM 35.8 °F 28.8 °F 23.7 °F 62% 30.31 in 10.0 mi NNW 9.2 mph 17.3 mph N/A   Mostly Cloudy
3:55 AM 35.6 °F 28.6 °F 23.9 °F 62% 30.32 in 10.0 mi NNW 9.2 mph - N/A   Mostly Cloudy
4:14 AM 35.6 °F 28.6 °F 24.1 °F 63% 30.32 in 10.0 mi North 9.2 mph 19.6 mph N/A   Overcast
4:35 AM 35.2 °F 28.1 °F 23.9 °F 63% 30.32 in 10.0 mi NNW 9.2 mph - N/A   Overcast
4:55 AM 34.9 °F 28.3 °F 23.7 °F 64% 30.33 in 10.0 mi NNW 8.1 mph - N/A   Overcast
5:14 AM 34.7 °F 28.1 °F 24.4 °F 66% 30.33 in 10.0 mi North 8.1 mph - N/A   Overcast
5:35 AM 34.3 °F 27.0 °F 23.0 °F 63% 30.34 in 10.0 mi NNW 9.2 mph - N/A   Overcast
5:55 AM 34.2 °F 27.5 °F 23.4 °F 65% 30.35 in 10.0 mi North 8.1 mph - N/A   Overcast
6:15 AM 33.8 °F 25.8 °F 22.8 °F 64% 30.35 in 10.0 mi North 10.4 mph 16.1 mph N/A   Overcast
6:35 AM 33.6 °F 26.2 °F 22.6 °F 64% 30.36 in 10.0 mi NNW 9.2 mph - N/A   Overcast
6:54 AM 32.2 °F 28.9 °F 22.1 °F 66% 30.37 in 10.0 mi NE 3.5 mph - N/A   Overcast
7:15 AM 31.6 °F 26.0 °F 21.4 °F 66% 30.37 in 10.0 mi NE 5.8 mph - N/A   Overcast
7:35 AM 31.1 °F 25.4 °F 21.2 °F 67% 30.38 in 10.0 mi NE 5.8 mph - N/A   Overcast
7:54 AM 30.9 °F 24.3 °F 21.0 °F 67% 30.39 in 10.0 mi NE 6.9 mph - N/A   Overcast
9:34 AM 31.6 °F 24.4 °F 20.7 °F 64% 30.43 in 10.0 mi NE 8.1 mph - N/A   Overcast
9:55 AM 32.0 °F 24.8 °F 20.8 °F 63% 30.42 in 10.0 mi NE 8.1 mph - N/A   Overcast
10:15 AM 32.5 °F 23.2 °F 21.0 °F 63% 30.42 in 10.0 mi NE 12.7 mph - N/A   Overcast
10:34 AM 33.3 °F 24.6 °F 20.5 °F 59% 30.42 in 10.0 mi NE 11.5 mph - N/A   Scattered Clouds
10:55 AM 34.0 °F 25.5 °F 20.3 °F 57% 30.42 in 10.0 mi NNE 11.5 mph 16.1 mph N/A   Clear
11:15 AM 33.8 °F 27.0 °F 19.6 °F 56% 30.42 in 10.0 mi NE 8.1 mph 17.3 mph N/A   Clear
11:35 AM 34.3 °F 27.7 °F 19.2 °F 54% 30.41 in 10.0 mi NNE 8.1 mph - N/A   Clear
11:55 AM 34.9 °F 29.9 °F 19.4 °F 53% 30.40 in 10.0 mi East 5.8 mph - N/A   Clear
12:14 PM 35.2 °F 31.2 °F 19.2 °F 52% 30.40 in 10.0 mi East 4.6 mph - N/A   Clear
12:35 PM 35.6 °F 32.8 °F 18.7 °F 50% 30.40 in 10.0 mi North 3.5 mph - N/A   Clear
12:55 PM 35.8 °F - 18.7 °F 50% 30.40 in 10.0 mi Calm Calm - N/A   Clear
1:14 PM 36.3 °F - 18.7 °F 49% 30.39 in 10.0 mi Calm Calm - N/A   Clear
1:35 PM 36.9 °F - 19.2 °F 49% 30.38 in 10.0 mi Calm Calm - N/A   Clear
1:55 PM 37.4 °F - 18.9 °F 47% 30.37 in 10.0 mi Calm Calm - N/A   Clear
2:15 PM 37.4 °F 32.8 °F 19.0 °F 48% 30.37 in 10.0 mi NE 5.8 mph - N/A   Clear
2:35 PM 37.4 °F 33.8 °F 19.0 °F 48% 30.36 in 10.0 mi East 4.6 mph - N/A   Clear
2:54 PM 37.4 °F - 19.2 °F 48% 30.35 in 10.0 mi Calm Calm - N/A   Clear
3:15 PM 37.9 °F 33.5 °F 19.8 °F 48% 30.35 in 10.0 mi East 5.8 mph - N/A   Clear
3:35 PM 37.6 °F 34.0 °F 19.6 °F 48% 30.35 in 10.0 mi East 4.6 mph - N/A   Clear
3:55 PM 37.6 °F 35.1 °F 19.8 °F 49% 30.35 in 10.0 mi ESE 3.5 mph - N/A   Clear
4:14 PM 37.0 °F 33.3 °F 19.9 °F 50% 30.35 in 10.0 mi SE 4.6 mph - N/A   Clear
4:35 PM 36.9 °F 34.3 °F 20.1 °F 51% 30.35 in 10.0 mi ESE 3.5 mph - N/A   Clear
4:55 PM 36.0 °F 33.3 °F 19.9 °F 52% 30.36 in 10.0 mi SE 3.5 mph - N/A   Clear
5:14 PM 35.4 °F - 19.9 °F 53% 30.36 in 10.0 mi Calm Calm - N/A   Clear
5:35 PM 34.5 °F - 19.8 °F 55% 30.36 in 10.0 mi Calm Calm - N/A   Clear
5:55 PM 32.9 °F - 20.1 °F 59% 30.35 in 10.0 mi Calm Calm - N/A   Clear
6:15 PM 30.6 °F - 22.5 °F 72% 30.36 in 10.0 mi Calm Calm - N/A   Clear
6:35 PM 29.3 °F - 20.8 °F 71% 30.36 in 7.0 mi Calm Calm - N/A   Clear
6:54 PM 27.9 °F - 22.1 °F 79% 30.35 in 7.0 mi Calm Calm - N/A   Clear
7:15 PM 30.7 °F 27.3 °F 20.8 °F 67% 30.34 in 10.0 mi SE 3.5 mph - N/A   Clear
7:35 PM 30.6 °F - 21.2 °F 68% 30.34 in 10.0 mi Calm Calm - N/A   Clear
7:55 PM 31.1 °F 27.7 °F 20.8 °F 66% 30.33 in 10.0 mi SSE 3.5 mph - N/A   Clear
8:14 PM 30.7 °F - 21.6 °F 69% 30.35 in 10.0 mi Calm Calm - N/A   Clear
8:35 PM 29.3 °F 25.6 °F 20.8 °F 71% 30.34 in 10.0 mi ESE 3.5 mph - N/A   Clear
8:55 PM 29.3 °F 25.6 °F 21.2 °F 72% 30.33 in 10.0 mi ESE 3.5 mph - N/A   Clear
9:15 PM 28.4 °F - 21.2 °F 74% 30.32 in 10.0 mi Calm Calm - N/A   Clear
9:35 PM 28.6 °F 24.8 °F 21.4 °F 74% 30.32 in 10.0 mi ESE 3.5 mph - N/A   Clear
9:54 PM 28.9 °F 25.2 °F 21.2 °F 73% 30.31 in 10.0 mi ESE 3.5 mph - N/A   Clear
10:15 PM 28.9 °F 23.9 °F 21.2 °F 73% 30.30 in 10.0 mi ESE 4.6 mph - N/A   Clear
10:35 PM 29.1 °F 24.1 °F 21.6 °F 73% 30.30 in 10.0 mi SE 4.6 mph - N/A   Clear
10:54 PM 30.2 °F 24.3 °F 22.1 °F 72% 30.29 in 10.0 mi SE 5.8 mph - N/A   Clear
11:15 PM 30.6 °F 25.8 °F 22.1 °F 71% 30.28 in 10.0 mi SE 4.6 mph - N/A   Clear
11:35 PM 30.2 °F 25.4 °F 22.1 °F 72% 30.28 in 10.0 mi SE 4.6 mph - N/A   Clear
11:55 PM 29.8 °F - 22.1 °F 73% 30.27 in 10.0 mi Calm Calm - N/A   Clear